ZHUHAI-1 01 (CAS-4A) (42761 NORAD) Tracking and Keplerian Element Data

This shows tracking and keplerian element data for the satellite.

Feedback or suggestion? Click here.




ElementValue
Catalog42761
NameZHUHAI-1 01 (CAS-4A)
Epoch Orbit30008
Epoch Day325.13061313
Epoch Year2022
RAAN187.0354
Inclination43.0169
Eccentricity0.0010473
Argument of Perigee210.734
Mean Anonmoly291.5609
Mean Motion15.13379553
Decay Rate4.102E-05
L11 42761U 17034D 22325.13061313 .00004102 00000+0 23806-3 0 9995
L22 42761 43.0169 187.0354 0010473 210.7340 291.5609 15.13379553300080



Live tracking and technical data element details for ZHUHAI-1 01 (CAS-4A) (NORAD 42761). ZHUHAI-1 01 (CAS-4A) can be tracked NOW for your location showing map with azimuth and elevation plus other details from your city location.







IsCatalogInMostPopularTable: catalog: 42761, numindb: 649
Update: records affected: 1



GetName: 42761 ZHUHAI-1 01 (CAS-4A)

Hit Count: updated at: Mon, 28 Nov 2022 05:39:12 GMT